• En España
  • Lista de países
  • Para 7 días
  • Temperatura del agua
  • Mapa Satelital
  • El tiempo en el mapa
  • Informadores
  • user-avatar
    Iniciar sesión

    Tiempo cada hora Liège

    Hoy, 19 Octubre, Viernes

    Tiempo Temperatura Precipitaciones Viento Presión Humedad
    00:00 +10°C° 0 mm 2 mps 758 mmHg 95%
    01:00 +10°C° 0 mm 2 mps 758 mmHg 95%
    02:00 +9°C° 0 mm 2 mps 758 mmHg 96%
    03:00 +9°C° 0 mm 2 mps 758 mmHg 96%
    04:00 +9°C° 0 mm 2 mps 758 mmHg 96%
    05:00 +9°C° 0 mm 2 mps 758 mmHg 96%
    06:00 +9°C° 0 mm 2 mps 758 mmHg 96%
    07:00 +10°C° 0 mm 2 mps 758 mmHg 91%
    08:00 +13°C° 0 mm 2 mps 758 mmHg 85%
    09:00 +14°C° 0 mm 2 mps 758 mmHg 80%
    10:00 +16°C° 0 mm 2 mps 758 mmHg 74%
    11:00 +17°C° 0 mm 2 mps 758 mmHg 69%
    12:00 +18°C° 0 mm 2 mps 758 mmHg 63%
    13:00 +18°C° 0 mm 2 mps 758 mmHg 64%
    14:00 +18°C° 0 mm 2 mps 758 mmHg 65%
    15:00 +18°C° 0 mm 2 mps 758 mmHg 66%
    16:00 +16°C° 0 mm 2 mps 758 mmHg 72%
    17:00 +15°C° 0 mm 2 mps 758 mmHg 78%
    18:00 +13°C° 0 mm 2 mps 759 mmHg 84%
    19:00 +12°C° 0 mm 2 mps 759 mmHg 86%
    20:00 +12°C° 0 mm 2 mps 760 mmHg 88%
    21:00 +10°C° 0 mm 2 mps 760 mmHg 90%
    22:00 +11°C° 0 mm 1 mps 760 mmHg 90%
    23:00 +10°C° 0 mm 1 mps 760 mmHg 91%

    Mañana, 20 Octubre, Sábado

    Tiempo Temperatura Precipitaciones Viento Presión Humedad
    00:00 +10°C° 0 mm 1 mps 761 mmHg 92%
    01:00 +9°C° 0 mm 1 mps 761 mmHg 92%
    02:00 +9°C° 0 mm 1 mps 761 mmHg 92%
    03:00 +9°C° 0 mm 1 mps 761 mmHg 93%
    04:00 +8°C° 0 mm 1 mps 762 mmHg 93%
    05:00 +8°C° 0 mm 1 mps 762 mmHg 93%
    06:00 +7°C° 0 mm 2 mps 762 mmHg 94%
    07:00 +8°C° 0 mm 2 mps 763 mmHg 87%
    08:00 +10°C° 0 mm 2 mps 763 mmHg 81%
    09:00 +12°C° 0 mm 2 mps 763 mmHg 75%
    10:00 +14°C° 0 mm 2 mps 763 mmHg 68%
    11:00 +15°C° 0 mm 2 mps 763 mmHg 61%
    12:00 +16°C° 0 mm 2 mps 763 mmHg 55%
    13:00 +16°C° 0 mm 2 mps 763 mmHg 56%
    14:00 +16°C° 0 mm 2 mps 763 mmHg 57%
    15:00 +16°C° 0 mm 2 mps 763 mmHg 58%
    16:00 +14°C° 0 mm 2 mps 763 mmHg 63%
    17:00 +12°C° 0 mm 2 mps 763 mmHg 69%
    18:00 +9°C° 0 mm 2 mps 763 mmHg 75%
    19:00 +10°C° 0 mm 1 mps 763 mmHg 76%
    20:00 +9°C° 0 mm 1 mps 763 mmHg 76%
    21:00 +9°C° 0 mm 1 mps 763 mmHg 77%
    22:00 +8°C° 0 mm 1 mps 763 mmHg 77%
    23:00 +8°C° 0 mm 1 mps 763 mmHg 78%

    Pasado mañana, 21 Octubre, Domingo

    Tiempo Temperatura Precipitaciones Viento Presión Humedad
    00:00 +8°C° 0 mm 1 mps 763 mmHg 78%
    01:00 +8°C° 0 mm 1 mps 763 mmHg 78%
    02:00 +7°C° 0 mm 1 mps 763 mmHg 78%
    03:00 +6°C° 0 mm 0 mps 763 mmHg 78%
    04:00 +6°C° 0 mm 0 mps 763 mmHg 78%
    05:00 +6°C° 0 mm 0 mps 762 mmHg 78%
    06:00 +7°C° 0 mm 1 mps 762 mmHg 78%
    07:00 +8°C° 0 mm 0 mps 762 mmHg 71%
    08:00 +10°C° 0 mm 0 mps 762 mmHg 64%
    09:00 +12°C° 0 mm 0 mps 762 mmHg 56%
    10:00 +14°C° 0 mm 0 mps 762 mmHg 52%
    11:00 +16°C° 0 mm 0 mps 762 mmHg 48%
    12:00 +17°C° 0 mm 0 mps 761 mmHg 44%
    13:00 +17°C° 0 mm 0 mps 761 mmHg 47%
    14:00 +19°C° 0 mm 1 mps 760 mmHg 50%
    15:00 +18°C° 0 mm 1 mps 760 mmHg 52%
    16:00 +15°C° 0 mm 1 mps 760 mmHg 58%
    17:00 +13°C° 0 mm 1 mps 760 mmHg 64%
    18:00 +11°C° 0 mm 1 mps 760 mmHg 70%
    19:00 +10°C° 0 mm 1 mps 760 mmHg 71%
    20:00 +10°C° 0 mm 1 mps 760 mmHg 73%
    21:00 +9°C° 0 mm 1 mps 761 mmHg 74%
    22:00 +9°C° 0 mm 1 mps 761 mmHg 75%
    23:00 +9°C° 0 mm 1 mps 761 mmHg 76%

    22 Octubre, Lunes

    Tiempo Temperatura Precipitaciones Viento Presión Humedad
    00:00 +9°C° 0 mm 1 mps 761 mmHg 77%
    01:00 +9°C° 0 mm 1 mps 761 mmHg 78%
    02:00 +9°C° 0 mm 1 mps 761 mmHg 79%
    03:00 +10°C° 0 mm 1 mps 761 mmHg 80%
    04:00 +9°C° 0.2 mm 2 mps 761 mmHg 84%
    05:00 +10°C° 0.2 mm 3 mps 762 mmHg 87%
    06:00 +10°C° 0.2 mm 4 mps 762 mmHg 91%
    07:00 +11°C° 0.2 mm 4 mps 762 mmHg 89%
    08:00 +10°C° 0.2 mm 5 mps 763 mmHg 86%
    09:00 +10°C° 0.2 mm 5 mps 763 mmHg 83%
    10:00 +10°C° 0 mm 5 mps 764 mmHg 78%
    11:00 +10°C° 0 mm 5 mps 764 mmHg 72%
    12:00 +10°C° 0 mm 5 mps 764 mmHg 67%
    13:00 +10°C° 0 mm 5 mps 764 mmHg 64%
    14:00 +10°C° 0 mm 5 mps 765 mmHg 62%
    15:00 +11°C° 0 mm 4 mps 765 mmHg 60%
    16:00 +10°C° 0 mm 4 mps 765 mmHg 64%
    17:00 +9°C° 0 mm 3 mps 765 mmHg 69%
    18:00 +8°C° 0 mm 3 mps 765 mmHg 74%
    19:00 +7°C° 0 mm 2 mps 766 mmHg 77%
    20:00 +6°C° 0 mm 2 mps 766 mmHg 80%
    21:00 +6°C° 0 mm 2 mps 766 mmHg 83%
    22:00 +6°C° 0 mm 1 mps 766 mmHg 84%
    23:00 +6°C° 0 mm 1 mps 766 mmHg 85%

    23 Octubre, Martes

    Tiempo Temperatura Precipitaciones Viento Presión Humedad
    00:00 +6°C° 0 mm 1 mps 765 mmHg 86%
    01:00 +5°C° 0 mm 2 mps 765 mmHg 85%
    02:00 +6°C° 0 mm 2 mps 765 mmHg 85%
    03:00 +6°C° 0 mm 2 mps 764 mmHg 84%
    04:00 +7°C° 0.1 mm 3 mps 764 mmHg 86%
    05:00 +7°C° 0.1 mm 3 mps 764 mmHg 87%
    06:00 +6°C° 0.1 mm 4 mps 764 mmHg 89%
    07:00 +7°C° 0.5 mm 4 mps 763 mmHg 90%
    08:00 +8°C° 0.5 mm 4 mps 763 mmHg 92%
    09:00 +10°C° 0.5 mm 4 mps 763 mmHg 93%
    10:00 +10°C° 0.3 mm 4 mps 763 mmHg 91%
    11:00 +11°C° 0.3 mm 4 mps 763 mmHg 89%
    12:00 +12°C° 0.3 mm 4 mps 762 mmHg 88%
    13:00 +12°C° 0.2 mm 4 mps 762 mmHg 88%
    14:00 +12°C° 0.2 mm 4 mps 762 mmHg 88%
    15:00 +12°C° 0.2 mm 4 mps 762 mmHg 87%
    16:00 +11°C° 0.1 mm 4 mps 762 mmHg 89%
    17:00 +11°C° 0.1 mm 4 mps 762 mmHg 90%
    18:00 +11°C° 0.1 mm 3 mps 762 mmHg 92%
    19:00 +11°C° 0.1 mm 4 mps 762 mmHg 92%
    20:00 +11°C° 0.1 mm 4 mps 762 mmHg 93%
    21:00 +11°C° 0.1 mm 4 mps 762 mmHg 94%
    22:00 +10°C° 0.1 mm 4 mps 762 mmHg 93%
    23:00 +10°C° 0.1 mm 4 mps 762 mmHg 93%

    24 Octubre, Miércoles

    Tiempo Temperatura Precipitaciones Viento Presión Humedad
    00:00 +10°C° 0.1 mm 4 mps 762 mmHg 93%
    01:00 +10°C° 0 mm 4 mps 761 mmHg 93%
    02:00 +10°C° 0 mm 4 mps 761 mmHg 93%
    03:00 +10°C° 0 mm 4 mps 761 mmHg 93%
    04:00 +10°C° 0.1 mm 4 mps 761 mmHg 93%
    05:00 +9°C° 0.1 mm 5 mps 761 mmHg 94%
    06:00 +10°C° 0.1 mm 5 mps 761 mmHg 94%
    07:00 +10°C° 0.1 mm 5 mps 761 mmHg 94%
    08:00 +12°C° 0.1 mm 5 mps 761 mmHg 93%
    09:00 +12°C° 0.1 mm 5 mps 761 mmHg 93%
    10:00 +13°C° 0.1 mm 5 mps 761 mmHg 93%
    11:00 +13°C° 0.1 mm 5 mps 761 mmHg 92%
    12:00 +14°C° 0.1 mm 5 mps 761 mmHg 92%
    13:00 +14°C° 0.1 mm 4 mps 761 mmHg 92%
    14:00 +14°C° 0.1 mm 4 mps 761 mmHg 92%
    15:00 +14°C° 0.1 mm 4 mps 761 mmHg 92%
    16:00 +14°C° 0.1 mm 4 mps 761 mmHg 92%
    17:00 +13°C° 0.1 mm 4 mps 762 mmHg 93%
    18:00 +13°C° 0.1 mm 4 mps 762 mmHg 94%
    19:00 +13°C° 0 mm 3 mps 762 mmHg 94%
    20:00 +13°C° 0 mm 3 mps 762 mmHg 94%
    21:00 +13°C° 0 mm 3 mps 763 mmHg 95%
    22:00 +13°C° 0.1 mm 2 mps 763 mmHg 95%
    23:00 +13°C° 0.1 mm 2 mps 763 mmHg 95%
    Mostrar más